Regional Weather Roundup
Issued by NWS

Home | Current Version | Previous Version | Graphics & Text | Print | Product List | Glossary Off
Versions: 1 2 3 4 5 6 7 8 9 10 11 12 13 14 15 16 17 18 19 20 21 22 23 24 25 26 27 28 29 30 31 32 33 34 35 36 37 38 39 40 41 42 43 44 45 46 47 48 49 50

144
ASUS43 KMPX 281410
RWRMN
WEATHER ROUNDUP FOR MINNESOTA
NATIONAL WEATHER SERVICE TWIN CITIES/CHANHASSEN MN
900 AM CDT FRI APR 28 2017


NOTE: "FAIR" INDICATES FEW OR NO CLOUDS BELOW 12,000 FEET WITH NO
SIGNIFICANT WEATHER AND/OR OBSTRUCTIONS TO VISIBILITY. N/A MEANS
CURRENT SKY AND/OR WEATHER CONDITIONS ARE NOT AVAILABLE.

MNZ060>063-068>070-281500-
   Twin Cities Metro

CITY           SKY/WX    TMP DP  RH WIND       PRES   REMARKS
TWIN CITIES    MOSUNNY   39  26  59 NW13      29.89S
ST PAUL        SUNNY     38  26  62 N15       29.90S
CRYSTAL        SUNNY     38  23  55 N10       29.89R
BLAINE         SUNNY     39  27  60 N12       29.90R
LAKEVILLE      MOSUNNY   37  28  70 N13       29.88R
EDEN PRAIRIE   MOSUNNY   40  26  57 N12       29.88R
SOUTH ST PAUL  MOSUNNY   39  26  59 N10       29.89R
LAKE ELMO      FAIR      36  27  69 NW9G17    29.90S
$$
MNZ001>005-007-008-013>017-022>024-027-028-281500-
   Northwest Minnesota

CITY           SKY/WX    TMP DP  RH WIND       PRES   REMARKS
BEMIDJI        SUNNY     31  24  73 NW8G17    29.87S WCI  24
HALLOCK        SUNNY     36  27  69 N13       29.93S
ROSEAU         SUNNY     32  27  80 NW12      29.89S WCI  23
WARROAD        SUNNY     34  25  69 NW9       29.88R WCI  26
THIEF RVR FALL SUNNY     34  26  72 NW10      29.93R WCI  26
CROOKSTON      SUNNY     36  30  80 NW10      29.95R
FOSSTON        SUNNY     32  25  74 NW8       29.91S WCI  25
DETROIT LAKES  MOSUNNY   32  30  93 N10G20    29.92R WCI  24
MOORHEAD       SUNNY     34  28  80 N12       29.96R WCI  25
PARK RAPIDS    SUNNY     34  22  61 N17       29.87R WCI  23
MAHNOMEN       FAIR      31  26  81 N7        29.91S WCI  25
$$
MNZ006-009>011-018-025>026-281500-
   North Central Minnesota

CITY           SKY/WX    TMP DP  RH WIND       PRES   REMARKS
BAUDETTE       MOSUNNY   33  22  63 NW15      29.83S WCI  23
FLAG ISLAND    CLOUDY    32  21  64 NW20      29.85R WCI  20
INTL FALLS     MOSUNNY   32  22  66 NW23G30   29.79S WCI  19
WASKISH        PTSUNNY   34  27  75 W10       29.87R WCI  26
BIG FORK       MOSUNNY   34  25  69 NW9       29.83S WCI  26
LONGVILLE      MOSUNNY   30  25  80 NW10G17   29.86R WCI  21
GRAND RAPIDS   CLOUDY    32  23  69 NW18G24   29.85R WCI  20
CRANE LAKE     CLOUDY    28  25  86 W3        29.79S
ORR            CLOUDY    30  21  69 NW13G21   29.77R WCI  20
COOK           CLOUDY    28  25  86 W13       29.80R WCI  18
WALKER         CLOUDY    30  24  78 NW12G17   29.88R WCI  20
$$
MNZ012-019>021-037-281500-
   Northeast Minnesota

CITY           SKY/WX    TMP DP  RH WIND       PRES   REMARKS
DULUTH         MOSUNNY   32  22  66 NW20G29   29.79R WCI  20
ELY            CLOUDY    28  23  80 W12       29.75R WCI  18
HIBBING        CLOUDY    29  24  82 NW15      29.81R WCI  18
EVELETH        CLOUDY    32  24  73 W15       29.81R WCI  22
DULUTH HARBOR  PTSUNNY   36  23  60 NW17G30   29.85S
TWO HARBORS    MOSUNNY   36  25  64 W14G21    29.77S
SILVER BAY     CLOUDY    34  25  69 NW5       29.75S WCI  30
GRAND MARAIS     N/A     33  26  75 VRB7G17   29.74R WCI  27
G MARAIS ARPRT FLURRIES  25  19  80 CALM      29.68R
$$
MNZ029>031-032-039>041-046>048-054>057-064-281500-
   West Central Minnesota

CITY           SKY/WX    TMP DP  RH WIND       PRES   REMARKS
FERGUS FALLS   MOSUNNY   34  28  80 N8        29.94R WCI  27
WHEATON        SUNNY     36  27  69 NW9       29.98R
MORRIS         SUNNY     36  28  75 N12G18    29.93R
ALEXANDRIA     PTSUNNY   34  27  75 N8        29.92R WCI  27
ELBOW LAKE     FAIR      33  29  82 W10       29.95R WCI  25
WADENA         PTSUNNY   30  27  86 NW9       29.89S WCI  22
GLENWOOD       PTSUNNY   34  28  80 NW9       29.92R WCI  26
APPLETON       SUNNY     37  28  70 N13       29.94R
BENSON         SUNNY     37  27  65 NE12      29.95R
ORTONVILLE     SUNNY     36  27  69 N12       29.95R
MADISON        SUNNY     39  28  65 N15       29.94S
WILLMAR        CLOUDY    36  30  80 N8        29.94R
$$
MNZ033>034-036-042>043-049>051-058-059-281500-
   Central Minnesota

CITY           SKY/WX    TMP DP  RH WIND       PRES   REMARKS
ST CLOUD       MOSUNNY   35  25  66 NW9       29.92R WCI  28
SAUK CENTRE    CLOUDY    32  25  76 NW12      29.92R WCI  23
PAYNESVILLE    PTSUNNY   33  26  75 N8        29.93R WCI  26
AITKIN         CLOUDY    34  25  69 NW6       29.85R WCI  29
PINE RIVER     MOSUNNY   32  25  74 NW10      29.91S WCI  24
BRAINERD       SUNNY     32  24  72 NW13      29.89R WCI  22
STAPLES        PTSUNNY   30  27  86 NW8       29.89R WCI  23
LONG PRAIRIE   CLOUDY    32  27  80 NW9       29.91S WCI  24
LITTLE FALLS   PTSUNNY   32  25  74 NW7       29.91R WCI  26
LITCHFIELD     SUNNY     37  28  70 N13       29.92R
BUFFALO        SUNNY     36  25  65 NW10      29.92R
MAPLE LAKE     SUNNY     37  28  71 NW9G16    29.92R
HUTCHINSON     SUNNY     38  29  68 NW15      29.91R
$$
MNZ037-044-045-052-053-281500-
   East Central Minnesota

CITY           SKY/WX    TMP DP  RH WIND       PRES   REMARKS
PRINCETON      MOSUNNY   36  25  64 NW7G16    29.91R
MORA           CLOUDY    32  25  74 W8        29.90R WCI  25
CAMBRIDGE      CLOUDY    36  25  64 W9        29.89R
RUSH CITY      CLOUDY    34  25  69 W7        29.90R WCI  28
MOOSE LAKE     CLOUDY    34  23  64 NW9G18    29.84S WCI  26
HINCKLEY       CLOUDY    34  27  75 NW7       29.88R WCI  28
CLOQUET        CLOUDY    30  21  69 NW13G24   29.83R WCI  20
MCGREGOR       CLOUDY    32  27  80 NW10G16   29.86S WCI  24
$$
MNZ071>073-080-081-089-090-097-098-281500-
   Southwest Minnesota

CITY           SKY/WX    TMP DP  RH WIND       PRES   REMARKS
MONTEVIDEO     SUNNY     37  28  70 NE16      29.94R
GRANITE FALLS  SUNNY     37  30  74 N15G21    29.94R
CANBY          SUNNY     37  28  69 N14       29.95R
MARSHALL       SUNNY     36  29  75 N14       29.93R
REDWOOD FALLS  SUNNY     38  30  73 N10       29.92R
OLIVIA         SUNNY     36  32  87 N10G17    29.91R
PIPESTONE      CLOUDY    36  25  64 NE12      29.88R
WINDOM         CLOUDY    36  30  80 N17       29.89S
WORTHINGTON    MOSUNNY   35  31  85 N8        29.90R WCI  29
JACKSON        CLOUDY    34  32  93 N5        29.90R WCI  30
TRACY          SUNNY     36  31  83 N12       29.92R
SLAYTON        CLOUDY    34  30  86 N17       29.90R WCI  23
$$
MNZ065>067-074>077-082>085-091>093-281500-
   South Central Minnesota

CITY           SKY/WX    TMP DP  RH WIND       PRES   REMARKS
MANKATO        MOSUNNY   39  30  70 N13       29.90R
NEW ULM        SUNNY     37  30  75 N8        29.91R
ST JAMES       CLOUDY    37  30  75 NW13      29.91S
FAIRMONT       CLOUDY    36  30  79 N5        29.91R
GLENCOE        SUNNY     38  30  73 N14G20    29.90R
FARIBAULT      SUNNY     39  30  70 N10       29.89R
OWATONNA       SUNNY     37  28  70 NW5       29.89R
WASECA         SUNNY     37  32  81 NW5       29.90S
ALBERT LEA     CLOUDY    37  28  70 CALM      29.90R
$$
MNZ078>079-086>088-094>096-281500-
   Southeast Minnesota

CITY           SKY/WX    TMP DP  RH WIND       PRES   REMARKS
ROCHESTER      SUNNY     39  31  72 N10       29.89R
RED WING       PTSUNNY   39  27  60 N7        29.88R
STANTON        MOSUNNY   40  31  67 NW14      29.88R
DODGE CENTER   SUNNY     37  30  75 NW9       29.88R
WINONA         SUNNY     41  30  65 NW3       29.90R
AUSTIN         SUNNY     37  30  75 S5        29.90R
PRESTON        SUNNY     39  28  66 CALM      29.90R
$$
ABBREVIATIONS USED IN REMARKS
   TC - TEMPERATURES IN CELSIUS
  WCI - WIND CHILL INDEX
   HX - HEAT INDEX
  VSB - VISIBILITY
$$




USA.gov is the U.S. government's official web portal to all federal, state and local government web resources and services.